[[{"header":{"parameterUnit":"m.s-1","parameterCategory":1,"la1":30.2991,"la2":30.254,"lo1":-89.0895,"lo2":-89.0444,"dy":0.0017,"dx":0.0017,"nx":28,"ny":28,"refTime":"2024-02-05T09:00:00:Z","depth":0,"parameterNumber":2,"parameterNumberName":"U-component_of_WINDS"},"data":[0,0,0,0,0,0,0,0,0,0,0,0,0,0,0,0,0,0,0,0,0,0,0,0,0,0,0,0,0,0,0,0,0,0,0,0,0,0,0,0,0,0,0,0,0,0,0,0,0,0,0,0,0,0,0,0,0,0,1.5069,1.5069,0,1.4999,1.4998,1.4998,1.4874,1.4871,1.4869,1.4867,1.4799,1.4799,1.4799,0,0,0,0,0,0,0,0,0,0,0,0,0,1.5101,1.5101,1.507,1.5069,1.5068,1.4999,1.4998,1.4997,1.4874,1.4871,1.4868,1.4866,1.4799,1.4799,1.4799,0,0,0,0,0,0,0,0,0,0,0,0,0,1.5065,1.5101,1.507,1.4998,1.4991,1.4999,1.4998,1.4997,1.4875,1.4871,1.4868,1.4864,1.4798,1.4799,1.48,1.4874,0,0,1.4801,1.4802,0,0,0,0,0,0,0,0,1.5067,1.5064,1.5009,1.5003,1.4995,1.4941,1.4984,1.4956,1.4876,1.4919,1.4867,1.4862,1.4849,1.4846,1.484,1.4871,1.4868,1.4801,1.4802,1.4802,1.4802,0,0,0,0,0,0,0,1.507,1.5066,1.5042,1.5009,1.5,1.497,1.4961,1.4978,1.4905,1.4915,1.4906,1.4899,1.4845,1.484,1.4838,1.4867,1.4801,1.4802,1.4802,1.4802,1.4956,1.496,0,0,0,0,0,0,1.5082,1.5069,1.5044,1.504,1.5023,1.4973,1.4963,1.4962,1.4904,1.4892,1.4902,1.4893,1.4841,1.4837,1.4835,1.4919,1.4802,1.4803,1.4803,1.4952,1.4957,1.4961,0,0,0,0,0,0,1.5083,1.5081,1.5047,1.5052,1.5045,1.4976,1.4977,1.4963,1.4958,1.4894,1.4881,1.491,1.4838,1.4834,1.4865,1.4915,1.4803,1.4803,1.4948,1.4954,1.4959,1.5088,0,0,0,0,0,0,1.5085,1.5082,1.5109,1.5053,1.5045,1.5078,1.498,1.4964,1.4959,1.4947,1.4899,1.4888,1.4835,1.4865,1.4866,1.4914,1.4804,1.4943,1.4951,1.4957,1.5079,1.5097,1.5113,0,0,0,0,0,1.5086,1.5149,1.5111,1.5109,1.5077,1.5081,1.5076,1.5013,1.4963,1.499,1.495,1.4889,1.4909,1.4869,1.4869,1.4918,1.494,1.4949,1.4957,1.5072,1.5094,1.5113,0,0,0,0,0,0,1.5214,1.514,1.5097,1.5143,1.5119,1.506,1.5092,1.5038,1.5029,1.5018,1.4941,1.4932,1.4973,1.4948,1.4905,1.4988,1.4915,1.4924,1.5003,1.5023,1.504,1.5046,1.4804,0,0,0,0,0,1.5247,1.5254,1.519,1.5237,1.5227,1.5162,1.5161,1.5114,1.5086,1.5076,1.5037,1.5014,1.5015,1.5017,1.5015,1.5074,1.5063,1.5108,1.5125,1.5139,1.5149,1.518,1.5199,1.4989,1.4989,1.4988,0,0,1.5316,1.5277,1.5287,1.5262,1.5237,1.5249,1.5154,1.517,1.5178,1.5079,1.5106,1.5077,1.5046,1.5092,1.511,1.5073,1.5204,1.515,1.5162,1.5163,1.519,1.521,1.5228,1.4994,1.4993,1.4992,0,0,1.5448,1.5418,1.5454,1.5432,1.5396,1.5352,1.5361,1.5309,1.5286,1.5312,1.5238,1.5247,1.525,1.5231,1.5222,1.5347,1.5291,1.5348,1.5437,1.5469,1.5485,1.55,1.5546,1.5563,1.5357,1.5357,1.5357,0,1.5539,1.5551,1.548,1.5501,1.5493,1.5402,1.5439,1.5421,1.5387,1.5384,1.5341,1.5344,1.5316,1.5357,1.5388,1.5383,1.5392,1.5354,1.5488,1.5502,1.5515,1.5558,1.5575,1.5364,1.5363,1.5363,1.5362,0,1.5666,1.5676,1.571,1.5678,1.5673,1.5702,1.5637,1.5641,1.5595,1.5556,1.5584,1.5548,1.5537,1.5542,1.5498,1.5578,1.5556,1.5502,1.5428,1.5543,1.5583,1.5598,1.5375,1.5372,1.537,1.5368,0,0,1.5877,1.5805,1.5819,1.5803,1.5757,1.5764,1.5789,1.5777,1.5783,1.5762,1.5783,1.5787,1.5737,1.5727,1.5679,1.5707,1.581,1.5649,1.5647,1.5682,1.5898,1.594,1.596,1.5772,1.5775,1.5777,1.5901,0,1.6001,1.6038,1.5975,1.6028,1.6038,1.5952,1.5974,1.5949,1.5913,1.5917,1.5877,1.5883,1.5816,1.5809,1.5832,1.5793,1.5853,1.5782,1.5793,1.5794,1.5805,1.5981,1.6025,1.6144,1.5916,1.5919,1.592,0,1.615,1.6135,1.619,1.614,1.6142,1.6163,1.6147,1.6151,1.6121,1.6093,1.6082,1.6025,1.6048,1.5975,1.6006,1.596,1.596,1.5942,1.5945,1.5945,1.5866,1.5988,1.618,1.6199,1.5944,1.5942,1.594,0,1.6301,1.6295,1.6327,1.6316,1.6259,1.6276,1.6253,1.6219,1.6216,1.6203,1.62,1.619,1.6186,1.618,1.6122,1.6074,1.6161,1.6083,1.6141,1.6143,1.6165,1.6164,1.6362,1.6162,1.6162,1.6161,1.6161,0,1.6446,1.6483,1.6394,1.6414,1.6453,1.638,1.6422,1.639,1.6361,1.6374,1.6299,1.6314,1.6236,1.6242,1.6198,1.6232,1.6229,1.6209,1.6197,1.6217,1.622,1.6218,1.6209,1.6166,1.6165,1.6164,1.6163,0,1.6623,1.6564,1.6593,1.6536,1.6522,1.6554,1.6506,1.6523,1.6482,1.65,1.65,1.6437,1.6441,1.6382,1.6375,1.6345,1.64,1.6372,1.641,1.6402,1.6463,1.6459,1.6668,1.6692,1.6476,1.6478,1.6479,0,1.672,1.6746,1.6692,1.6695,1.6676,1.6681,1.6677,1.6607,1.6607,1.6575,1.6596,1.6593,1.6588,1.6598,1.6553,1.6547,1.652,1.6593,1.6519,1.6538,1.6523,1.6523,1.6527,1.661,1.6612,1.6615,1.6616,0,1.6901,1.687,1.6867,1.6854,1.6851,1.6838,1.682,1.6827,1.6751,1.6754,1.6756,1.6752,1.6744,1.6743,1.6729,1.6706,1.665,1.664,1.6653,1.6675,1.6697,1.6688,1.6455,1.6636,1.6634,1.6633,1.6632,1.6631,1.7042,1.7061,1.7026,1.7026,1.7004,1.6989,1.7003,1.6963,1.6963,1.6951,1.6909,1.6919,1.6889,1.6864,1.6847,1.6855,1.6819,1.6838,1.6843,1.6849,1.6862,1.6694,1.6851,1.6851,1.685,1.685,1.6849,0,1.722,1.7193,1.7193,1.7169,1.7169,1.7113,1.7091,1.7095,1.7104,1.708,1.7076,1.708,1.7079,1.7033,1.7026,1.7041,1.7016,1.7042,1.7042,1.7038,1.6893,1.6883,1.7064,1.7064,1.7064,1.7064,1.7063,1.7063,1.7313,1.7344,1.7309,1.7329,1.7302,1.731,1.7302,1.7289,1.7269,1.7276,1.7275,1.7244,1.7212,1.7202,1.7199,1.7186,1.7188,1.7224,1.7203,1.7069,1.7048,1.7028,1.7018,1.7225,1.7225,1.7347,1.7348,1.7349]},{"header":{"parameterUnit":"m.s-1","parameterCategory":1,"la1":30.2991,"la2":30.254,"lo1":-89.0895,"lo2":-89.0444,"dy":0.0017,"dx":0.0017,"nx":28,"ny":28,"refTime":"2024-02-05T09:00:00:Z","depth":0,"parameterNumber":3,"parameterNumberName":"V-component_of_WINDS"},"data":[0,0,0,0,0,0,0,0,0,0,0,0,0,0,0,0,0,0,0,0,0,0,0,0,0,0,0,0,0,0,0,0,0,0,0,0,0,0,0,0,0,0,0,0,0,0,0,0,0,0,0,0,0,0,0,0,0,0,-4.7171,-4.7174,0,-4.743,-4.7433,-4.7436,-4.7517,-4.7515,-4.7514,-4.7513,-4.7769,-4.7777,-4.7784,0,0,0,0,0,0,0,0,0,0,0,0,0,-4.6738,-4.6746,-4.7171,-4.7174,-4.7177,-4.743,-4.7433,-4.7437,-4.7517,-4.7515,-4.7514,-4.7513,-4.7766,-4.7776,-4.7785,0,0,0,0,0,0,0,0,0,0,0,0,0,-4.6954,-4.6748,-4.717,-4.7248,-4.7258,-4.7429,-4.7433,-4.7438,-4.7517,-4.7515,-4.7514,-4.7512,-4.7763,-4.7775,-4.7786,-4.7896,0,0,-4.7823,-4.7828,0,0,0,0,0,0,0,0,-4.6942,-4.697,-4.7233,-4.7243,-4.7254,-4.744,-4.7375,-4.7591,-4.7518,-4.7418,-4.7513,-4.7511,-4.766,-4.768,-4.7733,-4.7908,-4.7919,-4.7824,-4.7831,-4.7836,-4.784,0,0,0,0,0,0,0,-4.6927,-4.6959,-4.7273,-4.7237,-4.725,-4.7267,-4.7296,-4.7416,-4.7546,-4.7427,-4.7433,-4.7463,-4.7665,-4.7721,-4.7739,-4.7923,-4.7824,-4.7834,-4.7842,-4.7846,-4.8204,-4.8207,0,0,0,0,0,0,-4.69,-4.6946,-4.7265,-4.7281,-4.7091,-4.7277,-4.7309,-4.7382,-4.7545,-4.7568,-4.7465,-4.7466,-4.7702,-4.7725,-4.7748,-4.7891,-4.7836,-4.7847,-4.7854,-4.8202,-4.8205,-4.8207,0,0,0,0,0,0,-4.689,-4.6927,-4.7254,-4.7116,-4.7159,-4.7286,-4.7367,-4.7388,-4.7444,-4.7574,-4.7596,-4.7498,-4.7701,-4.7732,-4.786,-4.79,-4.7853,-4.7864,-4.8199,-4.8203,-4.8206,-4.8173,0,0,0,0,0,0,-4.6877,-4.6924,-4.6968,-4.7116,-4.7166,-4.7364,-4.737,-4.7394,-4.7465,-4.7469,-4.7611,-4.7633,-4.7702,-4.7842,-4.7872,-4.7916,-4.7873,-4.8196,-4.8201,-4.8205,-4.8171,-4.8175,-4.8178,0,0,0,0,0,-4.6862,-4.6946,-4.697,-4.7008,-4.7225,-4.7366,-4.7394,-4.7475,-4.7468,-4.7513,-4.7597,-4.7628,-4.7891,-4.7855,-4.7889,-4.7937,-4.8194,-4.8199,-4.8205,-4.817,-4.8174,-4.8178,0,0,0,0,0,0,-4.6795,-4.6967,-4.6995,-4.713,-4.7234,-4.738,-4.7439,-4.7477,-4.7582,-4.7581,-4.7674,-4.7705,-4.7827,-4.7894,-4.7851,-4.8053,-4.8043,-4.8056,-4.8005,-4.8011,-4.8014,-4.7996,-4.7883,0,0,0,0,0,-4.6797,-4.69,-4.7043,-4.7148,-4.7199,-4.731,-4.7375,-4.7428,-4.7538,-4.7581,-4.7674,-4.7776,-4.7882,-4.795,-4.8054,-4.8181,-4.8213,-4.8231,-4.8234,-4.8236,-4.8246,-4.832,-4.833,-4.8225,-4.8225,-4.8225,0,0,-4.68,-4.6907,-4.6966,-4.7138,-4.7224,-4.7328,-4.7346,-4.7454,-4.7531,-4.7596,-4.7725,-4.7797,-4.7917,-4.8046,-4.8107,-4.8106,-4.8283,-4.8243,-4.8244,-4.8253,-4.8327,-4.8337,-4.8346,-4.8228,-4.8228,-4.8227,0,0,-4.686,-4.6951,-4.705,-4.7137,-4.7269,-4.7343,-4.7366,-4.7508,-4.756,-4.7691,-4.7743,-4.7834,-4.8014,-4.8099,-4.8165,-4.8259,-4.8292,-4.829,-4.8309,-4.838,-4.8388,-4.8396,-4.8431,-4.8443,-4.8299,-4.8299,-4.8299,0,-4.6847,-4.7008,-4.7095,-4.7203,-4.7277,-4.7344,-4.7445,-4.7524,-4.7681,-4.773,-4.7727,-4.7957,-4.8042,-4.8193,-4.8216,-4.8267,-4.8296,-4.8275,-4.8381,-4.8389,-4.8398,-4.8432,-4.8445,-4.8298,-4.8298,-4.8298,-4.8298,0,-4.6986,-4.7096,-4.716,-4.7316,-4.7397,-4.7499,-4.7601,-4.7672,-4.7719,-4.7792,-4.7925,-4.8031,-4.8159,-4.8198,-4.8242,-4.8356,-4.8351,-4.8363,-4.8355,-4.8406,-4.844,-4.8453,-4.8297,-4.8297,-4.8297,-4.8297,0,0,-4.7011,-4.7216,-4.7238,-4.7311,-4.7462,-4.7548,-4.7653,-4.7782,-4.7842,-4.7948,-4.8039,-4.8191,-4.8204,-4.8279,-4.8334,-4.8396,-4.8467,-4.8401,-4.8405,-4.8411,-4.8599,-4.8591,-4.8605,-4.8489,-4.8492,-4.8494,-4.859,0,-4.7091,-4.7287,-4.737,-4.7526,-4.763,-4.7696,-4.7788,-4.7889,-4.7961,-4.8057,-4.8134,-4.8242,-4.825,-4.8296,-4.8361,-4.8444,-4.8506,-4.8438,-4.8573,-4.8577,-4.8543,-4.8622,-4.8613,-4.8698,-4.8603,-4.8606,-4.8607,0,-4.7212,-4.7324,-4.7492,-4.7634,-4.768,-4.7762,-4.7888,-4.7979,-4.8096,-4.8143,-4.8229,-4.8281,-4.8393,-4.8377,-4.8532,-4.8484,-4.8544,-4.8594,-4.8599,-4.8615,-4.8596,-4.8642,-4.8727,-4.8741,-4.8629,-4.8627,-4.8626,0,-4.7216,-4.7408,-4.7534,-4.7594,-4.7761,-4.7818,-4.7889,-4.8004,-4.8077,-4.8186,-4.8235,-4.8353,-4.8418,-4.8508,-4.859,-4.8571,-4.8738,-4.8729,-4.878,-4.8778,-4.8813,-4.881,-4.891,-4.8848,-4.8848,-4.8848,-4.8848,0,-4.7298,-4.7398,-4.7539,-4.7616,-4.7731,-4.7824,-4.7934,-4.801,-4.8112,-4.8204,-4.8266,-4.8351,-4.8454,-4.8551,-4.8616,-4.8735,-4.8763,-4.8804,-4.882,-4.88,-4.8795,-4.8841,-4.8838,-4.8852,-4.8851,-4.885,-4.8849,0,-4.7322,-4.742,-4.7563,-4.7711,-4.7751,-4.7829,-4.7955,-4.8032,-4.8107,-4.8223,-4.8255,-4.8372,-4.849,-4.8581,-4.8732,-4.8776,-4.8903,-4.8919,-4.8865,-4.8874,-4.8921,-4.8915,-4.9055,-4.9079,-4.8999,-4.9,-4.9,0,-4.7369,-4.7449,-4.7607,-4.7676,-4.7749,-4.7857,-4.7933,-4.8027,-4.8103,-4.8244,-4.8303,-4.8427,-4.8531,-4.8715,-4.8812,-4.8929,-4.895,-4.8991,-4.8967,-4.8945,-4.8952,-4.8947,-4.8956,-4.8993,-4.8994,-4.8994,-4.8994,0,-4.7443,-4.7488,-4.7598,-4.7725,-4.7815,-4.7919,-4.8023,-4.8074,-4.8187,-4.8269,-4.8393,-4.8474,-4.8631,-4.8753,-4.888,-4.8951,-4.8992,-4.9001,-4.902,-4.9,-4.8966,-4.8987,-4.8875,-4.8998,-4.8997,-4.8997,-4.8997,-4.8997,-4.7482,-4.7557,-4.7681,-4.7801,-4.7891,-4.7987,-4.8068,-4.8155,-4.8261,-4.84,-4.8448,-4.8575,-4.869,-4.8866,-4.8938,-4.9038,-4.904,-4.9065,-4.9072,-4.9078,-4.9077,-4.8949,-4.9061,-4.9061,-4.9061,-4.9061,-4.9061,0,-4.756,-4.7644,-4.7754,-4.7901,-4.7995,-4.8029,-4.8146,-4.8222,-4.8335,-4.8441,-4.8543,-4.8685,-4.8804,-4.8911,-4.9034,-4.9093,-4.9115,-4.9122,-4.9119,-4.9136,-4.9068,-4.9041,-4.9103,-4.9103,-4.9103,-4.9103,-4.9103,-4.9103,-4.7612,-4.7742,-4.7802,-4.7977,-4.8059,-4.8188,-4.8253,-4.8342,-4.8427,-4.8585,-4.8686,-4.8756,-4.8862,-4.8994,-4.9104,-4.9132,-4.9175,-4.9178,-4.9211,-4.9145,-4.914,-4.9135,-4.911,-4.9186,-4.9186,-4.9271,-4.9272,-4.9272]}]]